Погода в Комсомольском

Россия / Кировская область     58°10′44″N   48°00′19″E
В апреле 2022 года жителям России запретили посещать сайт meteo.paraplan.net по решению Генеральной прокуратуры. Аудитория сайта уменьшилась в 10 раз. Владельцы сайта не видят смысла в поддержке погодного сервера в таких условиях. Сайт будет закрыт в октябре.
темп.,
°C
ветер,
м/с
пор.,
м/с
влажн.,
%
обл.,
%
осадки,
мм/ч
давл.,
гПа
погр.,
м
3 октября, пн
пн300:00+10ююз259899 0.0 1010127
03:00+12ююв239975 0.0 1010124
06:00+12юв2799100 0.0 1010279
09:00+14ююв4995100 0.0 1011453
12:00+16ю41087100 0.4 1012693
15:00+16ююв51272100 0.4 1012743
18:00+14ююв51469100 0.0 1014661
21:00+13ю61562100 0.0 1015752
4 октября, вт
вт400:00+12ю51463100 0.0 1016667
03:00+11ю5126599 0.0 1018663
06:00+11ю4107799 0.0 1019553
09:00+12ю4875100 0.0 1021625
12:00+12ююв4874100 0.0 1021654
15:00+12ююв4969100 0.0 1022600
18:00+11юв3979100 0.0 1022355
21:00+9юв31081100 0.0 1022346
5 октября, ср
ср500:00+9ююв41366100 0.0 1022537
03:00+9ююв41095100 1.1 1021625
06:00+9ююв41092100 0.4 1020641
09:00+9ююв41181100 0.4 1020570
12:00+10ююв41077100 0.0 1019695
15:00+12ююв5973100 0.0 1017890
18:00+9ююв51185100 0.8 1017657
21:00+7ююв41087100 2.4 1016533
6 октября, чт
чт600:00+7юв4993100 0.0 1014460
03:00+8юв3795100 0.1 1012484
06:00+7юв3798100 1.7 1011442
09:00+8ю3693100 2.8 1010423
12:00+7ю379298 0.1 1011459
15:00+7ю2495100 0.3 1011310
18:00+7юз1198100 0.0 101274
21:00+7зюз2597100 0.0 1011194
7 октября, пт
пт700:00+7зюз389550 0.1 1011401
03:00+4юз389695 0.1 1010232
06:00+4ююз3994100 0.8 1008331
09:00+6юз41097100 2.9 1008571
12:00+9з4108499 0.0 1008981
15:00+10зюз51082100 0.2 1008999
18:00+9з61282100 0.4 10081154
21:00+8з61286100 0.5 10091119